Wind_Speed
15 16 18 22 22 23 23 21 17 14 14 25 29 33 34 35 37 37 38 39 39 39 38 35 34 36 39 40 39 40 41 42 43 41 39 50 51 52
17 18 20 23 25 25 25 23 22 21 15 28 34 35 36 37 39 37 39 38 37 37 36 32 36 38 37 39 40 39 41 40 39 36 42 47 53 46
17 20 23 25 27 25 24 23 23 22 16 31 33 35 36 35 38 38 38 37 35 35 34 35 41 39 39 36 36 38 39 37 34 34 39 40 42 42
21 23 26 26 27 25 24 24 24 27 27 19 35 34 33 35 34 36 35 35 35 33 34 40 40 36 31 34 35 33 36 35 35 36 40 48 42 46
22 23 25 23 24 22 24 25 27 27 28 28 30 32 35 31 33 33 35 35 32 33 38 38 34 35 36 32 30 30 32 33 38 32 40 39 48 58
20 22 24 26 28 27 28 26 24 24 24 26 28 29 29 31 29 30 30 32 35 36 37 31 35 37 30 26 25 25 30 33 39 34 30 37 36 49
23 24 28 26 25 25 26 26 24 22 24 24 24 26 25 26 26 31 28 34 34 28 33 36 36 35 28 21 18 20 24 30 31 33 31 32 39 55
25 27 28 27 27 24 27 27 27 28 25 23 25 20 24 28 31 28 27 23 14 28 33 41 33 31 31 26 24 20 23 27 28 31 33 40 38 57
25 27 27 28 28 31 31 29 31 32 30 31 29 26 27 32 32 27 28 27 25 38 31 30 30 26 33 31 26 23 24 29 33 35 41 48 47 53
25 26 27 29 30 29 31 30 28 28 28 24 27 30 31 32 32 33 32 30 31 29 27 12 29 31 35 35 28 23 22 28 33 38 46 51 51 50
26 27 26 25 27 31 30 29 30 28 28 28 28 28 28 29 29 32 25 23 13 27 32 16 26 32 30 28 18 19 24 32 35 41 46 51 52 55
26 24 22 26 27 29 31 31 30 29 30 33 31 29 26 27 27 25 26 20 16 12 18 22 24 17 5 11 14 11 22 32 40 43 43 48 58 59
20 23 26 27 29 32 33 32 30 33 31 27 24 26 25 25 29 26 28 26 24 22 32 27 18 23 8 5 11 4 22 31 35 39 44 48 56 57
23 24 27 28 32 32 29 29 30 29 22 21 19 16 21 25 28 29 31 31 31 30 31 29 14 21 12 5 3 9 22 31 32 32 38 53 57 54
24 26 26 28 27 27 25 28 24 24 20 15 14 18 20 27 26 28 29 30 30 26 23 24 26 26 12 8 5 5 19 28 32 31 40 37 49 49
25 24 26 25 24 24 26 26 24 21 22 16 16 23 16 20 23 27 25 27 25 24 28 29 30 28 22 19 11 12 16 6 36 35 30 39 51 50
23 29 27 23 23 24 24 23 22 22 20 20 19 18 19 17 21 26 22 22 18 19 22 26 24 15 29 33 15 24 24 30 41 48 47 36 38 51
25 21 21 22 21 23 23 24 22 21 20 21 19 17 16 18 19 21 22 19 18 19 21 21 21 14 5 29 48 23 24 32 36 46 54 45 35 34
19 20 21 22 23 24 23 23 22 22 25 23 18 16 17 18 18 19 18 18 16 17 20 22 19 12 8 11 21 37 21 29 40 38 42 43 40 33
20 21 23 24 24 24 24 24 24 24 23 22 21 19 17 16 16 15 16 15 13 15 17 22 21 22 12 9 9 37 29 28 47 42 48 53 55 55
23 24 25 25 25 26 25 25 25 25 19 21 20 19 15 12 14 16 17 16 14 11 10 15 19 16 13 17 25 30 42 41 44 47 47 48 41 40
25 26 27 28 28 28 27 26 25 25 22 19 16 17 9 9 12 15 15 11 11 12 13 17 23 26 25 26 15 25 31 41 48 44 37 44 30 9
29 28 28 29 30 29 28 26 24 25 21 17 15 13 11 11 11 12 12 4 9 13 13 15 21 24 24 24 28 26 31 34 39 47 48 46 54 50
Wind_Direction
315 313 307 307 307 304 289 278 279 301 302 308 305 306 304 305 304 306 303 303 305 298 293 288 284 280 277 274 275 272 270 269 267 267 258 246 221 227
313 309 308 310 310 300 290 280 273 277 291 300 300 301 303 304 304 307 304 307 305 306 300 294 296 289 284 277 272 269 270 265 263 268 254 233 216 216
311 311 311 313 303 295 289 283 277 278 280 293 294 300 302 303 304 307 306 304 303 307 301 302 300 294 284 274 272 270 266 260 265 256 244 231 209 196
312 312 311 309 303 298 292 285 282 284 280 286 297 302 302 304 302 303 304 305 303 300 305 305 301 300 286 285 273 264 258 257 258 256 232 215 192 196
309 310 308 301 298 299 292 287 285 284 280 282 292 301 303 306 307 303 304 304 303 304 306 300 299 299 296 283 271 261 256 255 255 247 246 211 197 191
311 306 302 299 296 297 294 288 292 286 290 293 295 299 305 308 306 305 307 310 309 306 303 299 305 306 299 285 275 258 256 253 246 239 239 213 205 180
312 313 313 308 299 301 302 298 297 292 290 292 296 302 308 313 310 308 302 310 310 308 306 311 314 310 306 282 275 261 263 252 244 229 231 222 206 191
311 312 316 315 316 308 304 300 298 295 289 292 292 299 305 306 306 306 309 317 314 322 317 308 314 297 309 298 296 281 263 243 233 221 223 221 198 182
316 317 314 317 316 317 313 302 294 290 293 290 294 298 300 305 305 315 313 310 309 308 306 303 308 294 307 296 288 268 258 237 225 208 212 218 208 172
321 321 318 317 319 310 305 304 307 304 298 289 288 291 293 302 311 310 309 306 304 305 311 298 312 305 305 294 283 263 255 234 226 212 207 206 204 192
324 321 317 311 313 314 313 308 304 303 301 290 287 293 302 305 308 313 314 318 314 316 318 292 315 308 302 288 268 267 243 214 214 206 207 204 203 195
310 310 315 315 316 317 318 315 307 305 304 302 291 297 308 307 315 315 311 312 314 316 323 324 315 318 306 276 269 269 206 202 194 198 202 205 202 180
321 320 316 318 321 322 318 313 303 302 302 303 302 306 311 309 313 319 323 316 307 300 313 328 305 309 274 293 304 349 170 182 178 189 188 183 180 170
321 317 316 324 325 321 319 315 311 315 300 305 302 306 312 319 317 327 331 330 325 308 327 337 305 304 296 297 302 336 158 166 168 168 157 158 154 148
326 322 325 327 327 324 323 324 319 324 312 296 296 310 314 323 326 328 328 331 329 332 347 1 351 340 318 329 287 317 144 156 160 156 151 148 136 138
330 332 332 332 332 327 329 328 328 322 323 306 297 317 317 324 327 329 326 331 327 326 340 346 350 3 11 344 12 55 87 141 142 140 144 130 130 134
336 336 337 330 327 324 324 323 324 330 328 332 330 318 316 317 320 329 330 330 329 323 328 340 353 348 33 25 37 50 80 97 121 121 112 111 124 132
341 333 325 326 323 323 323 320 323 326 322 325 327 315 313 312 320 328 331 332 331 332 332 345 352 355 345 38 32 51 73 97 107 115 114 105 94 112
343 335 328 323 321 321 319 318 317 319 326 327 324 312 317 317 322 323 329 333 339 342 350 0 4 7 50 54 25 44 80 99 103 95 102 102 101 105
342 332 323 323 321 317 318 317 316 321 325 331 328 322 319 318 318 324 334 332 345 5 7 30 31 45 54 60 63 43 60 90 95 96 94 90 94 104
334 333 327 322 319 317 317 316 315 322 321 325 327 329 316 316 323 331 341 348 19 32 24 26 26 39 59 75 63 50 50 72 90 104 109 107 106 107
332 327 329 326 323 319 319 318 315 322 326 329 330 331 330 328 318 320 337 352 48 58 40 54 63 65 64 80 82 75 66 69 80 86 94 113 120 115
332 327 331 328 323 322 319 318 315 319 320 320 321 320 324 303 318 309 323 16 89 74 72 59 63 73 69 78 86 83 82 79 83 81 79 97 105 112
Height
784 782 780 778 775 773 770 768 763 745 731 730 725 719 713 707 699 694 686 677 671 664 657 652 647 643 639 634 631 628 626 624 621 622 620 623 628 632
780 778 775 772 769 766 763 760 756 750 731 729 718 714 707 700 692 687 679 672 664 656 648 642 637 631 627 623 620 616 613 611 611 604 608 606 613 615
775 773 770 767 763 760 757 753 749 744 733 720 715 707 701 694 685 679 672 664 656 649 641 634 627 620 614 610 607 603 600 599 598 602 606 600 596 597
771 768 765 762 758 756 752 748 743 737 730 717 708 701 695 688 681 672 664 657 649 641 634 626 616 609 602 598 595 593 588 587 588 593 593 594 594 604
767 764 761 757 753 749 745 741 735 729 723 715 703 697 689 683 674 665 658 649 641 633 623 615 607 599 590 585 581 579 578 578 575 585 580 580 589 601
762 759 755 751 746 742 737 733 728 723 717 711 701 691 685 677 670 660 649 642 631 622 613 605 596 587 579 574 571 569 569 571 571 574 568 573 583 587
757 754 749 745 742 737 733 727 722 717 711 704 696 688 679 672 665 656 646 634 625 617 604 594 587 578 571 567 565 564 560 561 566 569 567 572 584 594
752 748 744 739 734 731 727 723 719 712 704 698 690 684 677 670 661 652 642 631 614 610 601 583 581 571 565 559 554 555 557 555 556 564 569 575 581 587
747 742 738 734 729 724 719 714 709 705 700 694 686 681 673 666 657 648 641 632 620 606 599 582 574 564 560 553 548 547 548 551 553 562 569 575 582 587
742 737 733 729 724 719 713 706 702 698 691 687 682 675 669 662 656 648 637 628 616 604 597 579 568 558 548 540 536 535 536 538 544 553 562 572 580 591
737 732 728 724 720 714 708 701 695 689 685 680 675 670 665 659 653 644 634 624 609 597 588 579 566 555 541 529 528 526 526 532 539 547 557 568 578 590
733 728 724 720 714 709 703 697 690 684 678 671 665 662 659 653 647 642 634 624 612 595 586 579 566 560 542 525 523 519 519 526 535 544 554 562 571 585
730 726 720 715 709 703 699 693 686 679 673 667 662 657 652 648 642 637 632 624 613 599 589 586 567 555 550 534 519 513 515 524 533 543 550 556 562 575
727 722 716 709 704 699 693 687 681 674 668 663 658 654 649 643 637 632 627 619 612 601 590 583 572 560 547 532 522 514 515 524 533 541 548 557 566 577
725 719 713 706 701 695 690 684 678 672 665 661 656 652 648 642 636 630 624 616 606 597 590 582 571 558 547 539 527 517 516 525 534 542 552 563 564 581
720 714 710 704 698 693 686 681 676 671 665 659 655 649 646 641 635 630 622 613 604 593 586 579 571 562 549 541 529 515 516 522 535 547 557 562 580 594
717 711 705 701 695 690 684 680 674 668 663 659 653 648 644 641 634 629 624 618 611 599 585 578 571 564 559 548 534 530 529 531 540 549 563 582 596 601
716 711 706 701 695 689 683 677 673 668 663 658 653 649 645 640 635 631 625 620 612 603 592 584 576 568 562 553 548 549 549 549 558 566 573 583 605 616
717 712 706 700 694 688 682 677 672 667 662 658 654 648 645 642 637 632 627 623 616 608 599 592 584 577 572 567 570 564 566 567 568 579 587 596 609 631
716 711 705 698 692 686 681 675 670 665 661 656 652 649 645 643 638 634 631 626 621 615 607 604 593 593 585 586 585 583 577 575 567 585 595 610 626 638
714 709 704 697 691 685 679 674 669 664 660 656 651 648 644 643 638 635 632 629 625 623 616 614 611 603 597 592 588 594 598 594 592 599 613 622 639 655
713 707 702 696 689 683 676 671 666 661 657 655 652 648 646 645 642 637 636 633 630 628 627 622 620 616 610 608 615 619 616 617 616 620 630 633 642 660
713 707 698 693 687 681 674 669 664 659 656 654 652 649 647 646 645 640 639 637 635 635 632 628 627 626 627 626 626 633 638 639 640 644 655 656 662 675